Regional Weather Roundup
Issued by NWS Boston, MA

Current Version | Previous Version | Text Only | Print | Product List | Glossary Off
Versions: 1 2 3 4 5 6 7 8 9 10 11 12 13 14 15 16 17 18 19 20 21 22 23 24 25 26 27

000
ASUS41 KBOX 191510
RWRBOX

REGIONAL WEATHER ROUNDUP
NATIONAL WEATHER SERVICE BOSTON/NORTON MA
1100 AM EDT SAT MAY 19 2018

NOTE:  "FAIR" INDICATES FEW OR NO CLOUDS BELOW 12,000 FEET WITH NO
SIGNIFICANT WEATHER AND/OR OBSTRUCTIONS TO VISIBILITY.

MAZALL-191600-
EASTERN MASSACHUSETTS

CITY           SKY/WX    TMP DP  RH WIND       PRES   REMARKS
BOSTON         PTSUNNY   52  44  74 E12       30.41F
BEVERLY        CLOUDY    56  44  64 SE10G20   30.41F
LAWRENCE       FAIR      63  40  42 VRB7      30.41F
BEDFORD        PTSUNNY   58  44  60 E15       30.38F
BLUE HILL        N/A     56  46  69 VRB6      30.37F
NORWOOD        CLOUDY    60  48  64 E9        30.38F
MARSHFIELD     CLOUDY    54  46  76 E8        30.40F
PLYMOUTH       CLOUDY    56  47  71 E9        30.39F
TAUNTON        CLOUDY    57  47  69 E9        30.38F
NEW BEDFORD    LGT RAIN  55  51  86 E7        30.37F
$$

MAZALL-191600-
CAPE COD AND THE ISLANDS

CITY           SKY/WX    TMP DP  RH WIND       PRES   REMARKS
FALMOUTH       CLOUDY    55  50  82 SE10G18   30.39F
HYANNIS        CLOUDY    56  50  80 E10       30.37F
CHATHAM        CLOUDY    53  48  83 E10       30.40S
PROVINCETOWN   CLOUDY    55  47  74 SE9       30.41F
NANTUCKET      LGT RAIN  52  50  93 E12       30.37S
MARTHAS VNYRD  LGT RAIN  52  49  89 E13       30.37F
$$

MAZALL-191600-
CENTRAL AND WESTERN MASSACHUSETTS

CITY           SKY/WX    TMP DP  RH WIND       PRES   REMARKS
WORCESTER      CLOUDY    52  43  71 E9        30.37F
FITCHBURG      PTSUNNY   57  41  55 VRB5      30.38F
ORANGE         CLOUDY    58  36  43 SE13G22   30.37F
SPRINGFIELD    LGT RAIN  54  45  71 SE3       30.35F
WESTFIELD      RAIN      51  46  83 NW5       30.36S
NORTH ADAMS    RAIN      52  36  54 E9G20     30.33S
PITTSFIELD     LGT RAIN  48  42  80 E6        30.31F
$$

RIZALL-191600-
RHODE ISLAND

CITY           SKY/WX    TMP DP  RH WIND       PRES   REMARKS
PROVIDENCE     LGT RAIN  55  49  80 E7        30.38F
NEWPORT        LGT RAIN  54  52  93 E7        30.36F
BLOCK ISLAND   LGT RAIN  51  51 100 E14       30.35F
SMITHFIELD     LGT RAIN  55  48  76 MISG      30.38F
WESTERLY       LGT RAIN  55  54  96 NE9G18    30.35F
$$

CTZALL-191600-
CONNECTICUT

CITY           SKY/WX    TMP DP  RH WIND       PRES   REMARKS
BRADLEY INTL   LGT RAIN  51  46  83 N6        30.36F
HARTFORD       LGT RAIN  51  48  89 N5        30.35F FOG
BRIDGEPORT     LGT RAIN  52  50  93 E16       30.32F FOG
DANBURY        LGT RAIN  50  48  93 E10       30.31F FOG
GROTON         LGT RAIN  53  52  96 NE13      30.34F FOG
NEW HAVEN      LGT RAIN  53  51  93 NE7       30.33F FOG
CHESTER        RAIN      52  50  93 E7        30.33F
MERIDEN        RAIN      49  47  93 N6        30.35S FOG
WILLIMANTIC    LGT RAIN  54  50  86 E8        30.35F
OXFORD         LGT RAIN  47  47 100 E9        30.32F FOG
$$

MEZ002-015-021-024-NHZ003-005-008-011-012-014-VTZ005-008-191600-
NORTHERN NEW ENGLAND

CITY           SKY/WX    TMP DP  RH WIND       PRES   REMARKS
PORTLAND ME    PTSUNNY   57  41  55 SE9       30.43F
BANGOR ME      CLOUDY    62  27  26 S14       30.41F
CONCORD NH     FAIR      59  35  40 SE10      30.39F
MANCHESTER NH  CLOUDY    63  36  36 SE12      30.38F
NASHUA NH      CLOUDY    60  39  45 SE8       30.39F
PORTSMOUTH NH  PTSUNNY   56  38  51 E9        30.41F
JAFFREY NH     FAIR      56  36  47 VRB5      30.37F
KEENE NH       CLOUDY    60  33  36 VRB5      30.36F
BURLINGTON VT  CLOUDY    62  32  32 S9        30.24F
MT. WASHINGTON CLOUDY    43   7  22 SW17        N/A
$$

NYZ052-076-191600-
EASTERN NEW YORK

CITY           SKY/WX    TMP DP  RH WIND       PRES   REMARKS
ALBANY         LGT RAIN  49  43  80 S7        30.32S
NEW YORK CITY  LGT RAIN  53  50  89 NE13      30.28F FOG
$$

ANZALL-191600-
MARINE OBSERVATIONS

STATION/POSITION TIME  TEMP    WIND        PRES    VSBY  WAVE
                       AIR SEA DIR/SP/G                  HT/PER
                 (UTC) (F)     (DEG/KT/KT) (MB)    (MI)  (FT/S)
BOSTON BUOY      1450   50 52   70/ 10/ 12 1030.0F         2/ 5
BUZZARDS BAY     1400   51      60/ 13/ 15 1029.3F
NANTUCKET SOUND  1350   48 48   70/ 14/ 16 1028.9          1/ 3
MASS BAY-STELLWA 1404   49 52              1029.3F         2/ 5
ISLE OF SHOALS   1500   49      70/ 11/ 11 1029.8F
S OF BLOCK IS    1443      49                N/A           4/ 5
$$

......................KEY.........................
  SKY/WX - SKY CONDITION/PRESENT WEATHER
  TMP    - TEMPERATURE IN FAHRENHEIT
  DWPT   - DEWPOINT IN FAHRENHEIT
  RH     - RELATIVE HUMIDITY IN PERCENT
  WIND   - DIRECTION AND SPEED IN MPH
  PRES   - MEAN SEA LEVEL PRESSURE IN INCHES OF HG
  WCI    - WIND CHILL INDEX
  VSB    - VISIBILITY IN MILES
  HX     - HEAT INDEX
  TC     - TEMPERATURE IN CELSIUS
  VRB    - VARIABLE WIND DIRECTION
  N/A    - NOT AVAILABLE




USA.gov is the U.S. government's official web portal to all federal, state and local government web resources and services.